Location: Gudip?du
(17.0263°N, 80.8301°E)
Time: 16:10:58
(UTC+00:00)

Meteor 2-10 Rocket - Pass Details

Date: 03 August 2024
Orbit: 733 x 882 km, 81.2° (Epoch: 11 September)

Event Time Altitude Azimuth Distance (km) Brightness Sun altitude
Exits shadow 22:00:36 57° 87° (E) 917 4.0 -30.5°
Drops below altitude 10° 22:05:29 10° 17° (NNE) 2,291 6.5 -29.5°
Sets 22:07:50 0° 13° (NNE) 3,199 7.3 -29.0°
